Regional Weather Roundup
Issued by NWS

Home | Current Version | Previous Version | Graphics & Text | Print | Product List | Glossary On
Versions: 1 2 3 4 5 6 7 8 9 10 11 12 13 14 15 16 17 18 19 20 21 22 23 24 25 26 27 28 29 30 31 32 33 34 35 36 37 38 39 40 41 42 43 44 45 46 47 48 49 50
000
ASUS45 KSLC 111810
RWRUT

UTAH REGIONAL WEATHER ROUNDUP
NATIONAL WEATHER SERVICE SALT LAKE CITY UT
1100 AM MST THU FEB 11 2016

UTZ001>011-023>025-111900-

NORTHERN UTAH

CITY           SKY/WX    TMP DP  RH WIND       PRES   REMARKS
BRIGHAM CITY   CLOUDY    26  24  92 CALM      30.51S
DUGWAY           N/A     28  28  99 SE6       30.48F FOG     WCI  22
HILL AFB       NOT AVBL
LOGAN          CLOUDY    24  24 100 CALM      30.49S FOG
OGDEN          CLOUDY    29  24  82 NW3       30.47R HAZE
PROVO AIRPORT  FOG       21  19  93 CALM      30.48S VSB 1/8
SALT LAKE CITY FOG       30  27  88 N7        30.47S VSB 1   WCI  23
VERNAL         CLOUDY    24  18  77 CALM      30.46S
WENDOVER       CLOUDY    28  25  86 SE3       30.47S
HEBER CITY     MOSUNNY   25  21  86 CALM      30.43F
WEST JORDAN    CLOUDY    27  25  93 SW6       30.47R WCI  20

$$

UTZ012>022-026-027-111900-

SOUTHERN/CENTRAL UTAH

CITY           SKY/WX    TMP DP  RH WIND       PRES   REMARKS
BLANDING       SUNNY     38  27  66 CALM      30.50R
BRYCE CANYON   SUNNY     30  18  60 CALM      30.46S
CEDAR CITY     MOSUNNY   32  24  72 CALM      30.41S
DELTA          CLOUDY    16  14  93 CALM      30.49F
HANKSVILLE     SUNNY     36  30  80 CALM      30.49S
MILFORD        CLOUDY    17  17 100 CALM      30.46S FOG
MOAB/CYNLANDS  MOSUNNY   37  27  67 CALM      30.45S
PRICE          MOSUNNY   34  23  64 CALM      30.43S
ST GEORGE      PTCLDY    46  27  46 S5        30.39F
KANAB          SUNNY     57  19  23 CALM      30.41S

$$

REGIONAL REPORTS     COLORADO/ARIZONA

CITY           SKY/WX    TMP DP  RH WIND       PRES   REMARKS
CRAIG, CO      CLOUDY    20  13  74 CALM      30.42R
GRAND JUNCTION CLOUDY    36  23  59 CALM      30.44S
RIFLE          CLOUDY    29  16  58 CALM      30.46S
MONTROSE       SUNNY     37  18  46 CALM      30.45F
CORTEZ         SUNNY     40  14  34 S3        30.42S
PAGE, AZ       SUNNY     44  30  57 N5        30.42F
GRAND CANYON   SUNNY     62   7  11 CALM      30.41F
KINGMAN        SUNNY     60  25  26 N6        30.29S
FLAGSTAFF      SUNNY     52  16  24 E5        30.43S

$$

REGIONAL REPORTS    NEVADA/IDAHO/WYOMING

CITY           SKY/WX    TMP DP  RH WIND       PRES   REMARKS
LAS VEGAS, NV  MOSUNNY   61  26  26 CALM      30.26S
ELY            MOSUNNY   26  15  63 S14       30.42S WCI  14
ELKO           PTSUNNY   22  14  71 E5        30.44S WCI  16
POCATELLO, ID  CLOUDY    29  21  72 E6        30.43S WCI  23
BURLEY         SUNNY     36  28  73 NE13      30.38R WCI  27
EVANSTON, WY   CLOUDY    33  15  47 S6        30.41R WCI  28
ROCK SPRINGS   CLOUDY   N/A N/A N/A MISG      30.37S
KEMMERER       CLOUDY    36  18  48 W9        30.40S WCI  29

$$



USA.gov is the U.S. government's official web portal to all federal, state and local government web resources and services.